Regional Weather Roundup
Issued by NWS

Home | Current Version | Previous Version | Text Only | Print | Product List | Glossary Off
Versions: 1 2 3 4 5 6 7 8 9 10 11 12 13 14 15 16 17 18 19 20 21 22 23 24 25 26 27 28 29 30 31 32 33 34 35 36 37 38 39 40 41 42 43 44 45 46 47 48 49 50

532
ASUS45 KCYS 151410
RWRWY

WYOMING REGIONAL WEATHER ROUNDUP
NATIONAL WEATHER SERVICE CHEYENNE WY
700 AM MST FRI DEC 15 2017

NOTE:  "FAIR" INDICATES FEW OR NO CLOUDS BELOW 12,000 FEET
WITH NO SIGNIFICANT WEATHER AND/OR OBSTRUCTIONS TO VISIBILITY.

WYZ001-151500-
YELLOWSTONE NATIONAL PARK

CITY           SKY/WX    TMP DP  RH WIND       PRES   REMARKS
LK YELLOWSTONE   N/A     13  11  92 CALM      30.25F
W YELLOWSTONE  NOT AVBL

$$
WYZ002>013-054>058-071-098>099-151500-
NORTHERN WYOMING

CITY           SKY/WX    TMP DP  RH WIND       PRES   REMARKS
JACKSON        FAIR      10   6  84 N3        30.30F
CODY           FAIR      33  13  43 NW8G23    29.97F WCI  26
GREYBULL       FAIR      16  13  88 SE3       30.04F
WORLAND        FAIR      13  10  88 CALM      30.03F
SHERIDAN       FAIR      23  14  68 N3        29.86F
BUFFALO        FAIR      35   3  26 SW6       29.88S WCI  30
GILLETTE       FAIR      34  15  46 SW14      29.87F WCI  25
HULETT         FAIR      32  14  47 SW13      29.86F WCI  22
NEWCASTLE      FAIR      19  12  73 CALM      29.93S

$$
WYZ014>020-022>026-101>103-151500-
CENTRAL WYOMING

CITY           SKY/WX    TMP DP  RH WIND       PRES   REMARKS
BIG PINEY      FAIR       9   2  73 CALM      30.20F
PINEDALE       FAIR      19  10  68 NW3       30.19F
DUBOIS         FAIR      30   5  34 N20       30.12R WCI  18
LANDER         FAIR      18  10  71 W3        30.03F
RIVERTON       FAIR      14  12  92 NW7       30.05F WCI   4
CASPER         FAIR      30  15  53 SW26G33   30.00F WCI  16
DOUGLAS        FAIR      23  15  71 E3        29.95F

$$
WYZ021-027>030-104>119-151500-
SOUTHERN WYOMING

CITY           SKY/WX    TMP DP  RH WIND       PRES   REMARKS
EVANSTON       FAIR      20  15  81 SW15      30.28S WCI   6
FORT BRIDGER   SUNNY     30   5  34 W18G24    30.28R WCI  18
ROCK SPRINGS   FAIR      27  10  49 SW17      30.21R WCI  14
DIXON          FAIR      11   7  85 CALM      30.29F
RAWLINS        FAIR      28  13  53 S7G20     30.15F WCI  21
SARATOGA       FAIR      19   9  63 SE10      30.19F WCI   8
LARAMIE        FAIR      23   9  55 SW18      30.07F WCI   9
CHEYENNE       FAIR      35  11  36 W25G33    29.97F WCI  23
TORRINGTON     FAIR      26  16  65 W5        29.95F WCI  20
PINE BLUFFS    FAIR      16  10  79 S7        30.01F WCI   6

$$




USA.gov is the U.S. government's official web portal to all federal, state and local government web resources and services.